Location: *
(48.8489°N, 2.3218°E)
Time: 18:07:35
(UTC+00:00)

Cosmos 1980 Rocket - Pass Details

Date: 23 August 2019
Orbit: 829 x 850 km, 71.0° (Epoch: 21 September)

Event Time Altitude Azimuth Distance (km) Brightness Sun altitude
Rises 20:26:56 0° 334° (NNW) 3,392 6.5 -14.7°
Reaches altitude 10° 20:29:29 10° 341° (NNW) 2,457 5.5 -15.0°
Maximum altitude 20:34:53 45° 53° (NE) 1,139 2.8 -15.7°
Enters shadow 20:37:55 24° 113° (ESE) 1,677 3.2 -16.1°
